Kankakee, IL

4:54 AM CDT on October 19, 2017 (GMT -0500)
Greater Kankakee

Weather History for KIKK - March, 2014

Change the Weather History Date:

Thursday, March 20, 2014

  Actual Average Record
Temperature  
Mean Temperature 38 °F -  
Max Temperature 47 °F 46 °F 82 °F (2012)
Min Temperature 29 °F 29 °F 9 °F (1986)
Degree Days  
Heating Degree Days 27    
Moisture  
Dew Point 30 °F    
Average Humidity 75    
Maximum Humidity 92    
Minimum Humidity 52    
Precipitation  
Precipitation 0.00 in - - ()
Sea Level Pressure  
Sea Level Pressure 30.04 in    
Wind  
Wind Speed 6 mph (West)    
Max Wind Speed 12 mph    
Max Gust Speed 18 mph    
Visibility 10 miles    
Events Rain    
Averages and records for this station are not official NWS values.
T = Trace of Precipitation, MM = Missing Value Source: NWS Daily Summary

Daily Weather History Graph

Daily Weather History Graph

Search for Another Location

Airport or City:

Trip Planner

Search our weather history database for the weather conditions in past years. The results will help you decide how hot, cold, wet, or windy it might be!

Date:

Astronomy

Mar. 20, 2014 Rise Set
Actual Time 6:54 AM CDT 7:03 PM CDT
Civil Twilight 6:27 AM CDT 7:31 PM CDT
Nautical Twilight 5:55 AM CDT 8:03 PM CDT
Astronomical Twilight 5:22 AM CDT 8:36 PM CDT
Moon 11:25 PM CDT (3/20) 8:58 AM CDT (3/20)
Length of Visible Light 13h 03m
Length of Day
12h 08m
Waning Gibbous, 84% of the Moon is Illuminated
Mar 20
Waning Gibbous
Mar 23
Last Quarter
Mar 30
New
Apr 7
First Quarter
Apr 15
Full

Hourly Weather History & Observations

Time (CDT) Temp. Windchill Dew Point Humidity Pressure Visibility Wind Dir Wind Speed Gust Speed Precip Events Conditions
12:15 AM 34.2 °F 26.8 °F 26.1 °F 72% 30.04 in 10.0 mi WNW 9.2 mph 17.3 mph N/A   Overcast
12:35 AM 34.2 °F 26.2 °F 26.4 °F 73% 30.04 in 10.0 mi West 10.4 mph 16.1 mph N/A   Overcast
12:55 AM 34.2 °F 26.2 °F 26.8 °F 74% 30.04 in 10.0 mi West 10.4 mph 16.1 mph N/A   Overcast
1:15 AM 34.3 °F 25.9 °F 26.1 °F 72% 30.04 in 10.0 mi WNW 11.5 mph 18.4 mph N/A   Overcast
1:35 AM 34.7 °F 26.4 °F 26.2 °F 71% 30.05 in 10.0 mi West 11.5 mph 17.3 mph N/A   Overcast
1:55 AM 33.8 °F 26.4 °F 27.1 °F 77% 30.04 in 10.0 mi West 9.2 mph - N/A   Overcast
2:15 AM 32.5 °F 25.5 °F 27.9 °F 83% 30.05 in 10.0 mi WSW 8.1 mph - N/A   Mostly Cloudy
2:35 AM 31.8 °F 25.4 °F 28.2 °F 87% 30.04 in 10.0 mi WSW 6.9 mph - N/A   Clear
2:55 AM 31.5 °F 24.9 °F 27.9 °F 87% 30.04 in 10.0 mi WSW 6.9 mph - N/A   Clear
3:15 AM 31.1 °F 24.5 °F 27.7 °F 87% 30.04 in 10.0 mi WSW 6.9 mph - N/A   Clear
3:35 AM 31.6 °F 24.4 °F 28.2 °F 87% 30.04 in 10.0 mi WSW 8.1 mph - N/A   Clear
3:55 AM 31.6 °F 23.7 °F 28.2 °F 87% 30.04 in 10.0 mi WSW 9.2 mph - N/A   Clear
4:15 AM 31.6 °F 24.4 °F 28.0 °F 87% 30.04 in 10.0 mi WSW 8.1 mph - N/A   Clear
4:35 AM 31.6 °F 25.1 °F 28.0 °F 87% 30.04 in 10.0 mi WSW 6.9 mph - N/A   Scattered Clouds
4:55 AM 30.9 °F 26.2 °F 27.5 °F 87% 30.04 in 10.0 mi SW 4.6 mph - N/A   Scattered Clouds
5:15 AM 29.7 °F 22.8 °F 27.5 °F 92% 30.05 in 10.0 mi SW 6.9 mph - N/A   Clear
5:35 AM 30.2 °F 23.4 °F 28.0 °F 92% 30.05 in 10.0 mi SW 6.9 mph - N/A   Scattered Clouds
5:55 AM 31.8 °F 25.4 °F 28.9 °F 89% 30.06 in 10.0 mi WSW 6.9 mph - N/A   Mostly Cloudy
6:15 AM 32.0 °F 27.5 °F 29.1 °F 89% 30.06 in 10.0 mi West 4.6 mph - N/A   Overcast
6:35 AM 32.0 °F 27.5 °F 29.5 °F 90% 30.06 in 10.0 mi WSW 4.6 mph - N/A   Overcast
6:55 AM 32.0 °F 24.8 °F 29.5 °F 90% 30.07 in 10.0 mi WSW 8.1 mph - N/A   Overcast
7:15 AM 32.0 °F 25.6 °F 29.1 °F 89% 30.08 in 10.0 mi WSW 6.9 mph - N/A Rain Light Rain
7:35 AM 32.0 °F 26.4 °F 29.3 °F 90% 30.07 in 10.0 mi WSW 5.8 mph - N/A   Overcast
7:55 AM 32.2 °F 26.7 °F 29.7 °F 90% 30.08 in 10.0 mi WSW 5.8 mph - N/A   Overcast
8:15 AM 32.4 °F 27.9 °F 29.3 °F 88% 30.07 in 10.0 mi SW 4.6 mph - N/A   Overcast
8:35 AM 32.9 °F - 29.8 °F 88% 30.07 in 10.0 mi Calm Calm - N/A   Mostly Cloudy
8:55 AM 34.5 °F 31.6 °F 30.4 °F 85% 30.07 in 10.0 mi WSW 3.5 mph - N/A   Scattered Clouds
9:15 AM 36.3 °F 33.7 °F 30.9 °F 81% 30.07 in 10.0 mi SSW 3.5 mph - N/A   Clear
9:35 AM 36.9 °F 33.1 °F 31.3 °F 80% 30.08 in 10.0 mi SSW 4.6 mph - N/A   Mostly Cloudy
9:55 AM 37.0 °F - 30.7 °F 78% 30.07 in 10.0 mi Calm Calm - N/A   Overcast
10:15 AM 37.9 °F - 31.5 °F 77% 30.08 in 10.0 mi Calm Calm - N/A   Mostly Cloudy
10:35 AM 39.4 °F - 31.8 °F 74% 30.07 in 10.0 mi Calm Calm - N/A   Overcast
10:55 AM 40.3 °F 38.2 °F 31.6 °F 71% 30.07 in 10.0 mi SW 3.5 mph - N/A   Mostly Cloudy
11:15 AM 42.1 °F 38.4 °F 32.4 °F 68% 30.06 in 10.0 mi WSW 5.8 mph - N/A   Mostly Cloudy
11:35 AM 41.7 °F 38.8 °F 31.5 °F 67% 30.06 in 10.0 mi WSW 4.6 mph - N/A   Mostly Cloudy
11:55 AM 41.7 °F 38.0 °F 32.2 °F 69% 30.05 in 10.0 mi WSW 5.8 mph - N/A   Scattered Clouds
12:15 PM 41.9 °F 39.0 °F 32.4 °F 69% 30.05 in 10.0 mi WSW 4.6 mph - N/A   Scattered Clouds
12:35 PM 43.7 °F 42.1 °F 33.3 °F 67% 30.05 in 10.0 mi West 3.5 mph - N/A   Scattered Clouds
12:55 PM 43.0 °F 40.3 °F 32.9 °F 68% 30.05 in 10.0 mi WNW 4.6 mph - N/A   Mostly Cloudy
1:15 PM 43.5 °F 41.9 °F 33.4 °F 68% 30.04 in 10.0 mi WSW 3.5 mph - N/A   Mostly Cloudy
1:35 PM 43.2 °F 41.5 °F 33.1 °F 68% 30.04 in 10.0 mi West 3.5 mph - N/A   Mostly Cloudy
1:55 PM 45.5 °F 41.8 °F 33.4 °F 63% 30.03 in 10.0 mi West 6.9 mph - N/A   Scattered Clouds
2:15 PM 45.3 °F 43.0 °F 33.1 °F 62% 30.02 in 10.0 mi WNW 4.6 mph - N/A   Clear
2:35 PM 45.3 °F 41.6 °F 31.6 °F 59% 30.02 in 10.0 mi NNW 6.9 mph - N/A   Clear
2:55 PM 45.5 °F 41.8 °F 32.0 °F 59% 30.02 in 10.0 mi SW 6.9 mph - N/A   Scattered Clouds
3:15 PM 47.1 °F - 32.5 °F 57% 30.02 in 10.0 mi West 5.8 mph - N/A   Mostly Cloudy
3:35 PM 46.4 °F 44.3 °F 30.9 °F 55% 30.02 in 10.0 mi NW 4.6 mph - N/A   Scattered Clouds
3:55 PM 46.2 °F 45.0 °F 30.7 °F 55% 30.01 in 10.0 mi NNW 3.5 mph - N/A   Clear
4:15 PM 46.2 °F 42.7 °F 30.6 °F 54% 30.01 in 10.0 mi West 6.9 mph - N/A   Clear
4:35 PM 46.2 °F - 29.8 °F 53% 30.00 in 10.0 mi Calm Calm - N/A   Clear
4:55 PM 46.2 °F 43.3 °F 30.2 °F 54% 30.01 in 10.0 mi West 5.8 mph - N/A   Clear
5:15 PM 46.8 °F - 30.0 °F 52% 30.01 in 10.0 mi West 5.8 mph - N/A   Clear
5:35 PM 46.9 °F - 30.6 °F 53% 30.01 in 10.0 mi West 6.9 mph - N/A   Clear
5:55 PM 46.4 °F 44.3 °F 30.0 °F 53% 30.02 in 10.0 mi WSW 4.6 mph - N/A   Clear
6:15 PM 45.5 °F 42.5 °F 30.2 °F 55% 30.02 in 10.0 mi West 5.8 mph - N/A   Clear
6:35 PM 44.4 °F 41.2 °F 30.2 °F 57% 30.02 in 10.0 mi West 5.8 mph - N/A   Clear
6:55 PM 43.0 °F - 31.5 °F 64% 30.02 in 10.0 mi Calm Calm - N/A   Clear
7:15 PM 41.9 °F - 32.0 °F 68% 30.01 in 10.0 mi Calm Calm - N/A   Clear
7:35 PM 41.0 °F - 31.3 °F 68% 30.02 in 10.0 mi Calm Calm - N/A   Clear
7:55 PM 39.4 °F - 31.1 °F 72% 30.02 in 10.0 mi Calm Calm - N/A   Clear
8:15 PM 37.0 °F 33.3 °F 30.7 °F 78% 30.02 in 10.0 mi NE 4.6 mph - N/A   Clear
8:35 PM 36.9 °F 34.3 °F 31.1 °F 80% 30.02 in 10.0 mi North 3.5 mph - N/A   Clear
8:55 PM 38.1 °F - 30.2 °F 73% 30.03 in 10.0 mi Calm Calm - N/A   Clear
9:15 PM 35.8 °F 33.0 °F 30.0 °F 80% 30.03 in 10.0 mi NE 3.5 mph - N/A   Clear
9:35 PM 35.4 °F 31.5 °F 29.8 °F 80% 30.02 in 10.0 mi NE 4.6 mph - N/A   Scattered Clouds
9:55 PM 33.8 °F 29.6 °F 29.5 °F 84% 30.02 in 10.0 mi ENE 4.6 mph - N/A   Clear
10:15 PM 33.8 °F - 30.2 °F 87% 30.02 in 10.0 mi Calm Calm - N/A   Clear
10:35 PM 33.6 °F - 29.3 °F 84% 30.02 in 10.0 mi Calm Calm - N/A   Mostly Cloudy
10:55 PM 35.6 °F - 30.0 °F 80% 30.03 in 10.0 mi Calm Calm - N/A   Mostly Cloudy
11:15 PM 35.1 °F 27.9 °F 30.7 °F 84% 30.01 in 10.0 mi NE 9.2 mph - N/A Rain Light Rain
11:35 PM 35.6 °F 29.9 °F 31.6 °F 85% 30.01 in 10.0 mi ENE 6.9 mph - N/A Rain Light Rain
11:55 PM 36.0 °F 29.0 °F 31.1 °F 82% 30.01 in 10.0 mi ENE 9.2 mph - N/A   Overcast